Location: Unspecified
(0.0000°N, 0.0000°E)
Time: 16:27:12
(UTC+00:00)

Geosat - Pass Details

Date: 18 June 2023
Orbit: 761 x 764 km, 108.1° (Epoch: 20 September)

Event Time Altitude Azimuth Distance (km) Brightness Sun altitude
Exits shadow 04:17:40 13° 320° (NW) 2,070 6.1 -23.6°
Drops below altitude 10° 04:18:15 10° 322° (NW) 2,287 6.3 -23.5°
Sets 04:20:35 0° 328° (NNW) 3,210 7.2 -22.9°
